Location: Caltech
(34.1382°N, 118.1253°W)
Time: 01:07:43
(UTC-07:00)

HO-68 - Visible Passes

Search period start: 01 November 2014 00:00
Search period end: 10 November 2014 23:00
Orbit: 1193 x 1204 km, 100.2° (Epoch: 31 October)

Date Brightness Start Highest point End Pass type
(mag) Time Alt. Az. Time Alt. Az. Time Alt. Az.
01 Nov ? 20:33:40 22° N 20:33:40 22° N 20:36:09 10° N visible
01 Nov ? 22:23:07 11° NW 22:23:07 11° NW 22:23:23 10° NW visible
02 Nov ? 19:16:38 20° NNE 19:16:38 20° NNE 19:18:56 10° N visible
02 Nov ? 21:06:05 14° NNW 21:06:05 14° NNW 21:06:54 10° NNW visible
03 Nov ? 18:59:35 17° NNE 18:59:35 17° NNE 19:01:35 10° NNE visible
03 Nov ? 20:49:03 16° NNW 20:49:03 16° NNW 20:50:16 10° NNW visible
04 Nov ? 18:42:33 14° NNE 18:42:33 14° NNE 18:44:02 10° NNE visible
04 Nov ? 20:32:00 18° NNW 20:32:00 18° NNW 20:33:30 10° NNW visible
05 Nov ? 18:25:30 11° NNE 18:25:30 11° NNE 18:26:05 10° NNE visible
05 Nov ? 20:14:58 19° NNW 20:14:58 19° NNW 20:16:38 10° NNW visible
06 Nov ? 19:57:55 19° N 19:57:55 19° N 19:59:40 10° N visible
07 Nov ? 19:40:52 18° N 19:40:52 18° N 19:42:36 10° N visible
08 Nov ? 19:23:49 17° N 19:23:49 17° N 19:25:26 10° N visible
09 Nov ? 19:06:46 15° NNE 19:06:46 15° NNE 19:08:09 10° N visible
09 Nov ? 20:56:14 11° NNW 20:56:14 11° NNW 20:56:33 10° NNW visible
10 Nov ? 18:49:43 13° NNE 18:49:43 13° NNE 18:50:42 10° NNE visible
10 Nov ? 20:39:10 13° NNW 20:39:10 13° NNW 20:39:49 10° NNW visible
